Year,Month,Day,Hour,Minute,Value (Times are PST for temperature in C)
2011,08,10,00,00,11.80
2011,08,10,00,01,11.80
2011,08,10,00,02,11.80
2011,08,10,00,03,11.80
2011,08,10,00,04,11.80
2011,08,10,00,05,11.80
2011,08,10,00,06,11.70
2011,08,10,00,07,11.70
2011,08,10,00,08,11.70
2011,08,10,00,09,11.70
2011,08,10,00,10,11.70
2011,08,10,00,11,11.70
2011,08,10,00,12,11.60
2011,08,10,00,13,11.60
2011,08,10,00,14,11.60
2011,08,10,00,15,11.60
2011,08,10,00,16,11.60
2011,08,10,00,17,11.60
2011,08,10,00,18,11.60
2011,08,10,00,19,11.50
2011,08,10,00,20,11.40
2011,08,10,00,21,11.40
2011,08,10,00,22,11.40
2011,08,10,00,23,11.40
2011,08,10,00,24,11.40
2011,08,10,00,25,11.40
2011,08,10,00,26,11.30
2011,08,10,00,27,11.30
2011,08,10,00,28,11.30
2011,08,10,00,29,11.30
2011,08,10,00,30,11.30
2011,08,10,00,31,11.30
2011,08,10,00,32,11.20
2011,08,10,00,33,11.20
2011,08,10,00,34,11.20
2011,08,10,00,35,11.20
2011,08,10,00,36,11.20
2011,08,10,00,37,11.20
2011,08,10,00,38,11.10
2011,08,10,00,39,11.10
2011,08,10,00,40,11.10
2011,08,10,00,41,11.10
2011,08,10,00,42,11.10
2011,08,10,00,43,11.10
2011,08,10,00,44,11.10
2011,08,10,00,45,11.10
2011,08,10,00,46,11.10
2011,08,10,00,47,11.10
2011,08,10,00,48,10.90
2011,08,10,00,49,10.90
2011,08,10,00,50,10.90
2011,08,10,00,51,10.90
2011,08,10,00,52,10.90
2011,08,10,00,53,10.90
2011,08,10,00,54,10.90
2011,08,10,00,55,10.90
2011,08,10,00,56,10.90
2011,08,10,00,57,10.90
2011,08,10,00,58,10.90
2011,08,10,00,59,10.80
2011,08,10,01,00,10.80
2011,08,10,01,01,10.80
2011,08,10,01,02,10.80
2011,08,10,01,03,10.70
2011,08,10,01,04,10.70
2011,08,10,01,05,10.70
2011,08,10,01,06,10.70
2011,08,10,01,07,10.60
2011,08,10,01,08,10.60
2011,08,10,01,09,10.60
2011,08,10,01,10,10.60
2011,08,10,01,11,10.60
2011,08,10,01,12,10.60
2011,08,10,01,13,10.60
2011,08,10,01,14,10.60
2011,08,10,01,15,10.60
2011,08,10,01,16,10.60
2011,08,10,01,17,10.50
2011,08,10,01,18,10.40
2011,08,10,01,19,10.40
2011,08,10,01,20,10.40
2011,08,10,01,21,10.40
2011,08,10,01,22,10.40
2011,08,10,01,23,10.40
2011,08,10,01,24,10.40
2011,08,10,01,25,10.40
2011,08,10,01,26,10.40
2011,08,10,01,27,10.40
2011,08,10,01,28,10.40
2011,08,10,01,29,10.40
2011,08,10,01,30,10.40
2011,08,10,01,31,10.30
2011,08,10,01,32,10.30
2011,08,10,01,33,10.30
2011,08,10,01,34,10.30
2011,08,10,01,35,10.30
2011,08,10,01,36,10.30
2011,08,10,01,37,10.30
2011,08,10,01,38,10.30
2011,08,10,01,39,10.20
2011,08,10,01,40,10.20
2011,08,10,01,41,10.20
2011,08,10,01,42,10.20
2011,08,10,01,43,10.10
2011,08,10,01,44,10.10
2011,08,10,01,45,10.10
2011,08,10,01,46,10.10
2011,08,10,01,47,10.10
2011,08,10,01,48,10.10
2011,08,10,01,49,10.10
2011,08,10,01,50,10.10
2011,08,10,01,51,10.10
2011,08,10,01,52,10.10
2011,08,10,01,53,10.10
2011,08,10,01,54,10.10
2011,08,10,01,55,10.10
2011,08,10,01,56,10.10
2011,08,10,01,57,10.10
2011,08,10,01,58,10.10
2011,08,10,01,59,10.10
2011,08,10,02,00,10.10
2011,08,10,02,01,10.10
2011,08,10,02,02,9.90
2011,08,10,02,03,9.90
2011,08,10,02,04,9.90
2011,08,10,02,05,9.90
2011,08,10,02,06,9.90
2011,08,10,02,07,9.90
2011,08,10,02,08,9.90
2011,08,10,02,09,9.90
2011,08,10,02,10,9.90
2011,08,10,02,11,9.90
2011,08,10,02,12,9.90
2011,08,10,02,13,9.90
2011,08,10,02,14,9.90
2011,08,10,02,15,9.90
2011,08,10,02,16,9.80
2011,08,10,02,17,9.80
2011,08,10,02,18,9.80
2011,08,10,02,19,9.80
2011,08,10,02,20,9.80
2011,08,10,02,21,9.80
2011,08,10,02,22,9.70
2011,08,10,02,23,9.70
2011,08,10,02,24,9.70
2011,08,10,02,25,9.70
2011,08,10,02,26,9.70
2011,08,10,02,27,9.70
2011,08,10,02,28,9.70
2011,08,10,02,29,9.70
2011,08,10,02,30,9.70
2011,08,10,02,31,9.70
2011,08,10,02,32,9.70
2011,08,10,02,33,9.70
2011,08,10,02,34,9.70
2011,08,10,02,35,9.70
2011,08,10,02,36,9.70
2011,08,10,02,37,9.70
2011,08,10,02,38,9.70
2011,08,10,02,39,9.70
2011,08,10,02,40,9.70
2011,08,10,02,41,9.70
2011,08,10,02,42,9.70
2011,08,10,02,43,9.70
2011,08,10,02,44,9.70
2011,08,10,02,45,9.70
2011,08,10,02,46,9.70
2011,08,10,02,47,9.60
2011,08,10,02,48,9.60
2011,08,10,02,49,9.60
2011,08,10,02,50,9.60
2011,08,10,02,51,9.60
2011,08,10,02,52,9.60
2011,08,10,02,53,9.60
2011,08,10,02,54,9.60
2011,08,10,02,55,9.60
2011,08,10,02,56,9.60
2011,08,10,02,57,9.70
2011,08,10,02,58,9.70
2011,08,10,02,59,9.70
2011,08,10,03,00,9.70
2011,08,10,03,01,9.70
2011,08,10,03,02,9.70
2011,08,10,03,03,9.70
2011,08,10,03,04,9.70
2011,08,10,03,05,9.70
2011,08,10,03,06,9.70
2011,08,10,03,07,9.70
2011,08,10,03,08,9.60
2011,08,10,03,09,9.60
2011,08,10,03,10,9.60
2011,08,10,03,11,9.60
2011,08,10,03,12,9.60
2011,08,10,03,13,9.60
2011,08,10,03,14,9.60
2011,08,10,03,15,9.60
2011,08,10,03,16,9.60
2011,08,10,03,17,9.60
2011,08,10,03,18,9.60
2011,08,10,03,19,9.60
2011,08,10,03,20,9.60
2011,08,10,03,21,9.70
2011,08,10,03,22,9.70
2011,08,10,03,23,9.70
2011,08,10,03,24,9.70
2011,08,10,03,25,9.70
2011,08,10,03,26,9.70
2011,08,10,03,27,9.70
2011,08,10,03,28,9.70
2011,08,10,03,29,9.70
2011,08,10,03,30,9.70
2011,08,10,03,31,9.70
2011,08,10,03,32,9.70
2011,08,10,03,33,9.70
2011,08,10,03,34,9.70
2011,08,10,03,35,9.70
2011,08,10,03,36,9.70
2011,08,10,03,37,9.70
2011,08,10,03,38,9.70
2011,08,10,03,39,9.70
2011,08,10,03,40,9.70
2011,08,10,03,41,9.70
2011,08,10,03,42,9.70
2011,08,10,03,43,9.70
2011,08,10,03,44,9.70
2011,08,10,03,45,9.70
2011,08,10,03,46,9.70
2011,08,10,03,47,9.70
2011,08,10,03,48,9.70
2011,08,10,03,49,9.70
2011,08,10,03,50,9.70
2011,08,10,03,51,9.70
2011,08,10,03,52,9.70
2011,08,10,03,53,9.70
2011,08,10,03,54,9.70
2011,08,10,03,55,9.70
2011,08,10,03,56,9.70
2011,08,10,03,57,9.70
2011,08,10,03,58,9.70
2011,08,10,03,59,9.70
2011,08,10,04,00,9.70
2011,08,10,04,01,9.70
2011,08,10,04,02,9.70
2011,08,10,04,03,9.70
2011,08,10,04,04,9.70
2011,08,10,04,05,9.70
2011,08,10,04,06,9.70
2011,08,10,04,07,9.60
2011,08,10,04,08,9.60
2011,08,10,04,09,9.60
2011,08,10,04,10,9.60
2011,08,10,04,11,9.60
2011,08,10,04,12,9.50
2011,08,10,04,13,9.50
2011,08,10,04,14,9.50
2011,08,10,04,15,9.50
2011,08,10,04,16,9.40
2011,08,10,04,17,9.40
2011,08,10,04,18,9.40
2011,08,10,04,19,9.40
2011,08,10,04,20,9.40
2011,08,10,04,21,9.40
2011,08,10,04,22,9.40
2011,08,10,04,23,9.40
2011,08,10,04,24,9.40
2011,08,10,04,25,9.40
2011,08,10,04,26,9.40
2011,08,10,04,27,9.40
2011,08,10,04,28,9.30
2011,08,10,04,29,9.30
2011,08,10,04,30,9.30
2011,08,10,04,31,9.30
2011,08,10,04,32,9.40
2011,08,10,04,33,9.40
2011,08,10,04,34,9.40
2011,08,10,04,35,9.40
2011,08,10,04,36,9.40
2011,08,10,04,37,9.40
2011,08,10,04,38,9.40
2011,08,10,04,39,9.30
2011,08,10,04,40,9.30
2011,08,10,04,41,9.30
2011,08,10,04,42,9.20
2011,08,10,04,43,9.20
2011,08,10,04,44,9.20
2011,08,10,04,45,9.20
2011,08,10,04,46,9.20
2011,08,10,04,47,9.20
2011,08,10,04,48,9.20
2011,08,10,04,49,9.20
2011,08,10,04,50,9.20
2011,08,10,04,51,9.20
2011,08,10,04,52,9.20
2011,08,10,04,53,9.20
2011,08,10,04,54,9.20
2011,08,10,04,55,9.20
2011,08,10,04,56,9.20
2011,08,10,04,57,9.20
2011,08,10,04,58,9.20
2011,08,10,04,59,9.20
2011,08,10,05,00,9.10
2011,08,10,05,01,9.10
2011,08,10,05,02,9.10
2011,08,10,05,03,9.10
2011,08,10,05,04,9.00
2011,08,10,05,05,9.00
2011,08,10,05,06,9.00
2011,08,10,05,07,9.00
2011,08,10,05,08,9.00
2011,08,10,05,09,9.00
2011,08,10,05,10,9.00
2011,08,10,05,11,9.00
2011,08,10,05,12,9.00
2011,08,10,05,13,9.00
2011,08,10,05,14,9.00
2011,08,10,05,15,9.00
2011,08,10,05,16,9.00
2011,08,10,05,17,9.00
2011,08,10,05,18,9.00
2011,08,10,05,19,9.00
2011,08,10,05,20,8.90
2011,08,10,05,21,8.90
2011,08,10,05,22,8.90
2011,08,10,05,23,8.90
2011,08,10,05,24,8.90
2011,08,10,05,25,8.90
2011,08,10,05,26,8.90
2011,08,10,05,27,8.90
2011,08,10,05,28,8.90
2011,08,10,05,29,8.90
2011,08,10,05,30,8.90
2011,08,10,05,31,8.90
2011,08,10,05,32,8.90
2011,08,10,05,33,8.90
2011,08,10,05,34,8.90
2011,08,10,05,35,8.90
2011,08,10,05,36,8.90
2011,08,10,05,37,8.80
2011,08,10,05,38,8.80
2011,08,10,05,39,8.80
2011,08,10,05,40,8.80
2011,08,10,05,41,8.90
2011,08,10,05,42,8.90
2011,08,10,05,43,8.90
2011,08,10,05,44,8.90
2011,08,10,05,45,8.90
2011,08,10,05,46,8.90
2011,08,10,05,47,8.90
2011,08,10,05,48,8.90
2011,08,10,05,49,8.90
2011,08,10,05,50,8.90
2011,08,10,05,51,8.90
2011,08,10,05,52,8.90
2011,08,10,05,53,9.00
2011,08,10,05,54,9.00
2011,08,10,05,55,9.00
2011,08,10,05,56,9.00
2011,08,10,05,57,9.00
2011,08,10,05,58,9.00
2011,08,10,05,59,9.00
2011,08,10,06,00,9.00
2011,08,10,06,01,9.00
2011,08,10,06,02,9.00
2011,08,10,06,03,9.00
2011,08,10,06,04,9.00
2011,08,10,06,05,9.00
2011,08,10,06,06,8.90
2011,08,10,06,07,8.90
2011,08,10,06,08,8.90
2011,08,10,06,09,8.90
2011,08,10,06,10,8.90
2011,08,10,06,11,8.90
2011,08,10,06,12,8.80
2011,08,10,06,13,8.80
2011,08,10,06,14,8.80
2011,08,10,06,15,8.80
2011,08,10,06,16,8.80
2011,08,10,06,17,8.80
2011,08,10,06,18,8.70
2011,08,10,06,19,8.80
2011,08,10,06,20,8.80
2011,08,10,06,21,8.70
2011,08,10,06,22,8.70
2011,08,10,06,23,8.70
2011,08,10,06,24,8.70
2011,08,10,06,25,8.80
2011,08,10,06,26,8.80
2011,08,10,06,27,8.80
2011,08,10,06,28,8.80
2011,08,10,06,29,8.80
2011,08,10,06,30,8.80
2011,08,10,06,31,8.80
2011,08,10,06,32,8.80
2011,08,10,06,33,8.80
2011,08,10,06,34,8.90
2011,08,10,06,35,8.90
2011,08,10,06,36,8.90
2011,08,10,06,37,8.90
2011,08,10,06,38,8.90
2011,08,10,06,39,8.90
2011,08,10,06,40,8.90
2011,08,10,06,41,8.90
2011,08,10,06,42,8.90
2011,08,10,06,43,8.90
2011,08,10,06,44,8.90
2011,08,10,06,45,8.90
2011,08,10,06,46,9.00
2011,08,10,06,47,9.00
2011,08,10,06,48,9.00
2011,08,10,06,49,9.00
2011,08,10,06,50,9.00
2011,08,10,06,51,9.00
2011,08,10,06,52,9.10
2011,08,10,06,53,9.10
2011,08,10,06,54,9.10
2011,08,10,06,55,9.10
2011,08,10,06,56,9.20
2011,08,10,06,57,9.20
2011,08,10,06,58,9.20
2011,08,10,06,59,9.20
2011,08,10,07,00,9.20
2011,08,10,07,01,9.20
2011,08,10,07,02,9.30
2011,08,10,07,03,9.30
2011,08,10,07,04,9.40
2011,08,10,07,05,9.40
2011,08,10,07,06,9.40
2011,08,10,07,07,9.50
2011,08,10,07,08,9.50
2011,08,10,07,09,9.50
2011,08,10,07,10,9.60
2011,08,10,07,11,9.60
2011,08,10,07,12,9.70
2011,08,10,07,13,9.70
2011,08,10,07,14,9.70
2011,08,10,07,15,9.70
2011,08,10,07,16,9.70
2011,08,10,07,17,9.80
2011,08,10,07,18,9.80
2011,08,10,07,19,9.80
2011,08,10,07,20,9.80
2011,08,10,07,21,9.90
2011,08,10,07,22,9.90
2011,08,10,07,23,9.90
2011,08,10,07,24,9.90
2011,08,10,07,25,10.10
2011,08,10,07,26,10.10
2011,08,10,07,27,10.20
2011,08,10,07,28,10.20
2011,08,10,07,29,10.30
2011,08,10,07,30,10.30
2011,08,10,07,31,10.40
2011,08,10,07,32,10.40
2011,08,10,07,33,10.40
2011,08,10,07,34,10.60
2011,08,10,07,35,10.60
2011,08,10,07,36,10.70
2011,08,10,07,37,10.80
2011,08,10,07,38,10.90
2011,08,10,07,39,11.00
2011,08,10,07,40,11.10
2011,08,10,07,41,11.20
2011,08,10,07,42,11.30
2011,08,10,07,43,11.40
2011,08,10,07,44,11.40
2011,08,10,07,45,11.40
2011,08,10,07,46,11.60
2011,08,10,07,47,11.60
2011,08,10,07,48,11.70
2011,08,10,07,49,11.80
2011,08,10,07,50,11.90
2011,08,10,07,51,12.00
2011,08,10,07,52,12.10
2011,08,10,07,53,12.20
2011,08,10,07,54,12.30
2011,08,10,07,55,12.30
2011,08,10,07,56,12.40
2011,08,10,07,57,12.50
2011,08,10,07,58,12.50
2011,08,10,07,59,12.60
2011,08,10,08,00,12.70
2011,08,10,08,01,12.80
2011,08,10,08,02,12.80
2011,08,10,08,03,12.90
2011,08,10,08,04,13.00
2011,08,10,08,05,13.00
2011,08,10,08,06,13.10
2011,08,10,08,07,13.10
2011,08,10,08,08,13.20
2011,08,10,08,09,13.30
2011,08,10,08,10,13.30
2011,08,10,08,11,13.40
2011,08,10,08,12,13.50
2011,08,10,08,13,13.50
2011,08,10,08,14,13.60
2011,08,10,08,15,13.70
2011,08,10,08,16,13.70
2011,08,10,08,17,13.70
2011,08,10,08,18,13.70
2011,08,10,08,19,13.80
2011,08,10,08,20,13.90
2011,08,10,08,21,13.90
2011,08,10,08,22,14.00
2011,08,10,08,23,14.00
2011,08,10,08,24,14.10
2011,08,10,08,25,14.20
2011,08,10,08,26,14.20
2011,08,10,08,27,14.20
2011,08,10,08,28,14.30
2011,08,10,08,29,14.40
2011,08,10,08,30,14.50
2011,08,10,08,31,14.50
2011,08,10,08,32,14.60
2011,08,10,08,33,14.70
2011,08,10,08,34,14.70
2011,08,10,08,35,14.80
2011,08,10,08,36,14.80
2011,08,10,08,37,14.90
2011,08,10,08,38,14.90
2011,08,10,08,39,15.00
2011,08,10,08,40,15.00
2011,08,10,08,41,15.10
2011,08,10,08,42,15.10
2011,08,10,08,43,15.20
2011,08,10,08,44,15.20
2011,08,10,08,45,15.30
2011,08,10,08,46,15.30
2011,08,10,08,47,15.30
2011,08,10,08,48,15.30
2011,08,10,08,49,15.30
2011,08,10,08,50,15.30
2011,08,10,08,51,15.30
2011,08,10,08,52,15.40
2011,08,10,08,53,15.40
2011,08,10,08,54,15.40
2011,08,10,08,55,15.40
2011,08,10,08,56,15.50
2011,08,10,08,57,15.50
2011,08,10,08,58,15.50
2011,08,10,08,59,15.60
2011,08,10,09,00,15.60
2011,08,10,09,01,15.60
2011,08,10,09,02,15.70
2011,08,10,09,03,15.70
2011,08,10,09,04,15.80
2011,08,10,09,05,15.80
2011,08,10,09,06,15.80
2011,08,10,09,07,15.80
2011,08,10,09,08,15.80
2011,08,10,09,09,15.90
2011,08,10,09,10,15.90
2011,08,10,09,11,15.90
2011,08,10,09,12,16.00
2011,08,10,09,13,16.10
2011,08,10,09,14,16.10
2011,08,10,09,15,16.10
2011,08,10,09,16,16.20
2011,08,10,09,17,16.20
2011,08,10,09,18,16.30
2011,08,10,09,19,16.30
2011,08,10,09,20,16.30
2011,08,10,09,21,16.40
2011,08,10,09,22,16.40
2011,08,10,09,23,16.40
2011,08,10,09,24,16.50
2011,08,10,09,25,16.60
2011,08,10,09,26,16.60
2011,08,10,09,27,16.70
2011,08,10,09,28,16.70
2011,08,10,09,29,16.80
2011,08,10,09,30,16.80
2011,08,10,09,31,16.80
2011,08,10,09,32,16.80
2011,08,10,09,33,16.90
2011,08,10,09,34,16.90
2011,08,10,09,35,16.90
2011,08,10,09,36,17.00
2011,08,10,09,37,17.00
2011,08,10,09,38,17.00
2011,08,10,09,39,17.00
2011,08,10,09,40,16.90
2011,08,10,09,41,16.90
2011,08,10,09,42,16.90
2011,08,10,09,43,16.90
2011,08,10,09,44,16.90
2011,08,10,09,45,16.90
2011,08,10,09,46,16.90
2011,08,10,09,47,16.90
2011,08,10,09,48,16.90
2011,08,10,09,49,16.80
2011,08,10,09,50,16.80
2011,08,10,09,51,16.80
2011,08,10,09,52,16.80
2011,08,10,09,53,16.70
2011,08,10,09,54,16.70
2011,08,10,09,55,16.70
2011,08,10,09,56,16.70
2011,08,10,09,57,16.70
2011,08,10,09,58,16.70
2011,08,10,09,59,16.70
2011,08,10,10,00,16.70
2011,08,10,10,01,16.70
2011,08,10,10,02,16.70
2011,08,10,10,03,16.70
2011,08,10,10,04,16.70
2011,08,10,10,05,16.70
2011,08,10,10,06,16.70
2011,08,10,10,07,16.70
2011,08,10,10,08,16.70
2011,08,10,10,09,16.80
2011,08,10,10,10,16.80
2011,08,10,10,11,16.80
2011,08,10,10,12,16.80
2011,08,10,10,13,16.80
2011,08,10,10,14,16.80
2011,08,10,10,15,16.80
2011,08,10,10,16,16.80
2011,08,10,10,17,16.80
2011,08,10,10,18,16.90
2011,08,10,10,19,16.90
2011,08,10,10,20,16.90
2011,08,10,10,21,16.90
2011,08,10,10,22,17.00
2011,08,10,10,23,17.00
2011,08,10,10,24,17.00
2011,08,10,10,25,17.10
2011,08,10,10,26,17.10
2011,08,10,10,27,17.10
2011,08,10,10,28,17.10
2011,08,10,10,29,17.10
2011,08,10,10,30,17.10
2011,08,10,10,31,17.10
2011,08,10,10,32,17.10
2011,08,10,10,33,17.00
2011,08,10,10,34,17.00
2011,08,10,10,35,17.00
2011,08,10,10,36,16.90
2011,08,10,10,37,16.90
2011,08,10,10,38,16.90
2011,08,10,10,39,16.90
2011,08,10,10,40,17.00
2011,08,10,10,41,17.00
2011,08,10,10,42,17.00
2011,08,10,10,43,17.00
2011,08,10,10,44,17.10
2011,08,10,10,45,17.10
2011,08,10,10,46,17.20
2011,08,10,10,47,17.20
2011,08,10,10,48,17.20
2011,08,10,10,49,17.20
2011,08,10,10,50,17.30
2011,08,10,10,51,17.30
2011,08,10,10,52,17.30
2011,08,10,10,53,17.30
2011,08,10,10,54,17.30
2011,08,10,10,55,17.30
2011,08,10,10,56,17.30
2011,08,10,10,57,17.30
2011,08,10,10,58,17.30
2011,08,10,10,59,17.30
2011,08,10,11,00,17.30
2011,08,10,11,01,17.30
2011,08,10,11,02,17.30
2011,08,10,11,03,17.30
2011,08,10,11,04,17.30
2011,08,10,11,05,17.40
2011,08,10,11,06,17.40
2011,08,10,11,07,17.50
2011,08,10,11,08,17.50
2011,08,10,11,09,17.50
2011,08,10,11,10,17.50
2011,08,10,11,11,17.60
2011,08,10,11,12,17.50
2011,08,10,11,13,17.50
2011,08,10,11,14,17.50
2011,08,10,11,15,17.50
2011,08,10,11,16,17.50
2011,08,10,11,17,17.50
2011,08,10,11,18,17.50
2011,08,10,11,19,17.50
2011,08,10,11,20,17.50
2011,08,10,11,21,17.50
2011,08,10,11,22,17.60
2011,08,10,11,23,17.60
2011,08,10,11,24,17.60
2011,08,10,11,25,17.60
2011,08,10,11,26,17.70
2011,08,10,11,27,17.70
2011,08,10,11,28,17.70
2011,08,10,11,29,17.70
2011,08,10,11,30,17.70
2011,08,10,11,31,17.70
2011,08,10,11,32,17.70
2011,08,10,11,33,17.70
2011,08,10,11,34,17.70
2011,08,10,11,35,17.80
2011,08,10,11,36,17.80
2011,08,10,11,37,17.80
2011,08,10,11,38,17.80
2011,08,10,11,39,17.80
2011,08,10,11,40,17.80
2011,08,10,11,41,17.80
2011,08,10,11,42,17.90
2011,08,10,11,43,17.90
2011,08,10,11,44,17.90
2011,08,10,11,45,17.90
2011,08,10,11,46,17.90
2011,08,10,11,47,17.90
2011,08,10,11,48,18.10
2011,08,10,11,49,18.10
2011,08,10,11,50,18.10
2011,08,10,11,51,18.10
2011,08,10,11,52,18.20
2011,08,10,11,53,18.20
2011,08,10,11,54,18.20
2011,08,10,11,55,18.30
2011,08,10,11,56,18.30
2011,08,10,11,57,18.30
2011,08,10,11,58,18.40
2011,08,10,11,59,18.40
2011,08,10,12,00,18.50
2011,08,10,12,01,18.50
2011,08,10,12,02,18.50
2011,08,10,12,03,18.50
2011,08,10,12,04,18.50
2011,08,10,12,05,18.60
2011,08,10,12,06,18.60
2011,08,10,12,07,18.60
2011,08,10,12,08,18.60
2011,08,10,12,09,18.60
2011,08,10,12,10,18.60
2011,08,10,12,11,18.60
2011,08,10,12,12,18.60
2011,08,10,12,13,18.60
2011,08,10,12,14,18.60
2011,08,10,12,15,18.60
2011,08,10,12,16,18.50
2011,08,10,12,17,18.50
2011,08,10,12,18,18.50
2011,08,10,12,19,18.50
2011,08,10,12,20,18.50
2011,08,10,12,21,18.40
2011,08,10,12,22,18.40
2011,08,10,12,23,18.30
2011,08,10,12,24,18.30
2011,08,10,12,25,18.20
2011,08,10,12,26,18.20
2011,08,10,12,27,18.20
2011,08,10,12,28,18.20
2011,08,10,12,29,18.20
2011,08,10,12,30,18.20
2011,08,10,12,31,18.20
2011,08,10,12,32,18.10
2011,08,10,12,33,18.10
2011,08,10,12,34,18.10
2011,08,10,12,35,18.10
2011,08,10,12,36,18.10
2011,08,10,12,37,18.10
2011,08,10,12,38,18.10
2011,08,10,12,39,18.10
2011,08,10,12,40,18.10
2011,08,10,12,41,18.10
2011,08,10,12,42,18.10
2011,08,10,12,43,18.10
2011,08,10,12,44,18.10
2011,08,10,12,45,18.10
2011,08,10,12,46,18.20
2011,08,10,12,47,18.20
2011,08,10,12,48,18.20
2011,08,10,12,49,18.30
2011,08,10,12,50,18.30
2011,08,10,12,51,18.40
2011,08,10,12,52,18.50
2011,08,10,12,53,18.60
2011,08,10,12,54,18.60
2011,08,10,12,55,18.70
2011,08,10,12,56,18.70
2011,08,10,12,57,18.70
2011,08,10,12,58,18.70
2011,08,10,12,59,18.70
2011,08,10,13,00,18.80
2011,08,10,13,01,18.80
2011,08,10,13,02,18.80
2011,08,10,13,03,18.80
2011,08,10,13,04,18.80
2011,08,10,13,05,18.70
2011,08,10,13,06,18.70
2011,08,10,13,07,18.60
2011,08,10,13,08,18.60
2011,08,10,13,09,18.60
2011,08,10,13,10,18.60
2011,08,10,13,11,18.60
2011,08,10,13,12,18.60
2011,08,10,13,13,18.60
2011,08,10,13,14,18.60
2011,08,10,13,15,18.50
2011,08,10,13,16,18.50
2011,08,10,13,17,18.50
2011,08,10,13,18,18.50
2011,08,10,13,19,18.50
2011,08,10,13,20,18.50
2011,08,10,13,21,18.50
2011,08,10,13,22,18.50
2011,08,10,13,23,18.50
2011,08,10,13,24,18.50
2011,08,10,13,25,18.50
2011,08,10,13,26,18.50
2011,08,10,13,27,18.50
2011,08,10,13,28,18.40
2011,08,10,13,29,18.40
2011,08,10,13,30,18.40
2011,08,10,13,31,18.40
2011,08,10,13,32,18.40
2011,08,10,13,33,18.40
2011,08,10,13,34,18.50
2011,08,10,13,35,18.50
2011,08,10,13,36,18.40
2011,08,10,13,37,18.50
2011,08,10,13,38,18.50
2011,08,10,13,39,18.50
2011,08,10,13,40,18.50
2011,08,10,13,41,18.50
2011,08,10,13,42,18.50
2011,08,10,13,43,18.50
2011,08,10,13,44,18.50
2011,08,10,13,45,18.50
2011,08,10,13,46,18.40
2011,08,10,13,47,18.30
2011,08,10,13,48,18.30
2011,08,10,13,49,18.20
2011,08,10,13,50,18.20
2011,08,10,13,51,18.20
2011,08,10,13,52,18.20
2011,08,10,13,53,18.20
2011,08,10,13,54,18.20
2011,08,10,13,55,18.20
2011,08,10,13,56,18.20
2011,08,10,13,57,18.30
2011,08,10,13,58,18.30
2011,08,10,13,59,18.30
2011,08,10,14,00,18.40
2011,08,10,14,01,18.50
2011,08,10,14,02,18.50
2011,08,10,14,03,18.50
2011,08,10,14,04,18.50
2011,08,10,14,05,18.50
2011,08,10,14,06,18.60
2011,08,10,14,07,18.60
2011,08,10,14,08,18.60
2011,08,10,14,09,18.60
2011,08,10,14,10,18.60
2011,08,10,14,11,18.60
2011,08,10,14,12,18.60
2011,08,10,14,13,18.60
2011,08,10,14,14,18.70
2011,08,10,14,15,18.70
2011,08,10,14,16,18.70
2011,08,10,14,17,18.80
2011,08,10,14,18,18.70
2011,08,10,14,19,18.70
2011,08,10,14,20,18.60
2011,08,10,14,21,18.60
2011,08,10,14,22,18.50
2011,08,10,14,23,18.40
2011,08,10,14,24,18.40
2011,08,10,14,25,18.40
2011,08,10,14,26,18.40
2011,08,10,14,27,18.40
2011,08,10,14,28,18.40
2011,08,10,14,29,18.40
2011,08,10,14,30,18.40
2011,08,10,14,31,18.40
2011,08,10,14,32,18.40
2011,08,10,14,33,18.30
2011,08,10,14,34,18.40
2011,08,10,14,35,18.40
2011,08,10,14,36,18.50
2011,08,10,14,37,18.60
2011,08,10,14,38,18.70
2011,08,10,14,39,18.70
2011,08,10,14,40,18.80
2011,08,10,14,41,18.90
2011,08,10,14,42,19.00
2011,08,10,14,43,19.10
2011,08,10,14,44,19.10
2011,08,10,14,45,19.20
2011,08,10,14,46,19.20
2011,08,10,14,47,19.20
2011,08,10,14,48,19.30
2011,08,10,14,49,19.30
2011,08,10,14,50,19.40
2011,08,10,14,51,19.40
2011,08,10,14,52,19.40
2011,08,10,14,53,19.40
2011,08,10,14,54,19.40
2011,08,10,14,55,19.40
2011,08,10,14,56,19.40
2011,08,10,14,57,19.40
2011,08,10,14,58,19.40
2011,08,10,14,59,19.30
2011,08,10,15,00,19.30
2011,08,10,15,01,19.20
2011,08,10,15,02,19.10
2011,08,10,15,03,19.10
2011,08,10,15,04,19.10
2011,08,10,15,05,19.10
2011,08,10,15,06,19.20
2011,08,10,15,07,19.20
2011,08,10,15,08,19.20
2011,08,10,15,09,19.30
2011,08,10,15,10,19.30
2011,08,10,15,11,19.30
2011,08,10,15,12,19.40
2011,08,10,15,13,19.40
2011,08,10,15,14,19.50
2011,08,10,15,15,19.50
2011,08,10,15,16,19.40
2011,08,10,15,17,19.30
2011,08,10,15,18,19.30
2011,08,10,15,19,19.20
2011,08,10,15,20,19.20
2011,08,10,15,21,19.20
2011,08,10,15,22,19.20
2011,08,10,15,23,19.20
2011,08,10,15,24,19.20
2011,08,10,15,25,19.30
2011,08,10,15,26,19.40
2011,08,10,15,27,19.40
2011,08,10,15,28,19.50
2011,08,10,15,29,19.40
2011,08,10,15,30,19.20
2011,08,10,15,31,19.20
2011,08,10,15,32,19.10
2011,08,10,15,33,19.20
2011,08,10,15,34,19.20
2011,08,10,15,35,19.10
2011,08,10,15,36,19.10
2011,08,10,15,37,19.10
2011,08,10,15,38,19.10
2011,08,10,15,39,19.10
2011,08,10,15,40,19.10
2011,08,10,15,41,19.10
2011,08,10,15,42,19.10
2011,08,10,15,43,19.00
2011,08,10,15,44,18.90
2011,08,10,15,45,18.90
2011,08,10,15,46,18.90
2011,08,10,15,47,18.80
2011,08,10,15,48,18.90
2011,08,10,15,49,18.80
2011,08,10,15,50,18.90
2011,08,10,15,51,18.90
2011,08,10,15,52,18.90
2011,08,10,15,53,19.00
2011,08,10,15,54,19.10
2011,08,10,15,55,19.10
2011,08,10,15,56,19.10
2011,08,10,15,57,19.10
2011,08,10,15,58,19.10
2011,08,10,15,59,18.90
2011,08,10,16,00,18.90
2011,08,10,16,01,18.90
2011,08,10,16,02,18.90
2011,08,10,16,03,18.90
2011,08,10,16,04,18.90
2011,08,10,16,05,18.90
2011,08,10,16,06,18.90
2011,08,10,16,07,19.00
2011,08,10,16,08,19.10
2011,08,10,16,09,19.30
2011,08,10,16,10,19.40
2011,08,10,16,11,19.50
2011,08,10,16,12,19.60
2011,08,10,16,13,19.60
2011,08,10,16,14,19.60
2011,08,10,16,15,19.60
2011,08,10,16,16,19.60
2011,08,10,16,17,19.60
2011,08,10,16,18,19.60
2011,08,10,16,19,19.60
2011,08,10,16,20,19.60
2011,08,10,16,21,19.60
2011,08,10,16,22,19.60
2011,08,10,16,23,19.60
2011,08,10,16,24,19.50
2011,08,10,16,25,19.50
2011,08,10,16,26,19.50
2011,08,10,16,27,19.50
2011,08,10,16,28,19.50
2011,08,10,16,29,19.50
2011,08,10,16,30,19.50
2011,08,10,16,31,19.50
2011,08,10,16,32,19.50
2011,08,10,16,33,19.50
2011,08,10,16,34,19.50
2011,08,10,16,35,19.50
2011,08,10,16,36,19.60
2011,08,10,16,37,19.60
2011,08,10,16,38,19.60
2011,08,10,16,39,19.60
2011,08,10,16,40,19.60
2011,08,10,16,41,19.60
2011,08,10,16,42,19.60
2011,08,10,16,43,19.60
2011,08,10,16,44,19.60
2011,08,10,16,45,19.60
2011,08,10,16,46,19.60
2011,08,10,16,47,19.70
2011,08,10,16,48,19.80
2011,08,10,16,49,19.90
2011,08,10,16,50,20.00
2011,08,10,16,51,20.10
2011,08,10,16,52,20.20
2011,08,10,16,53,20.20
2011,08,10,16,54,20.20
2011,08,10,16,55,20.20
2011,08,10,16,56,20.10
2011,08,10,16,57,20.00
2011,08,10,16,58,19.90
2011,08,10,16,59,19.80
2011,08,10,17,00,19.80
2011,08,10,17,01,19.80
2011,08,10,17,02,19.80
2011,08,10,17,03,19.80
2011,08,10,17,04,19.90
2011,08,10,17,05,19.90
2011,08,10,17,06,19.90
2011,08,10,17,07,19.90
2011,08,10,17,08,19.90
2011,08,10,17,09,19.90
2011,08,10,17,10,19.90
2011,08,10,17,11,20.00
2011,08,10,17,12,20.10
2011,08,10,17,13,20.10
2011,08,10,17,14,20.20
2011,08,10,17,15,20.30
2011,08,10,17,16,20.40
2011,08,10,17,17,20.50
2011,08,10,17,18,20.50
2011,08,10,17,19,20.50
2011,08,10,17,20,20.50
2011,08,10,17,21,20.60
2011,08,10,17,22,20.60
2011,08,10,17,23,20.60
2011,08,10,17,24,20.50
2011,08,10,17,25,20.50
2011,08,10,17,26,20.50
2011,08,10,17,27,20.50
2011,08,10,17,28,20.50
2011,08,10,17,29,20.60
2011,08,10,17,30,20.60
2011,08,10,17,31,20.70
2011,08,10,17,32,20.70
2011,08,10,17,33,20.70